Location: Stone Trail Observatory
(44.2408°N, 105.6081°W)
Time: 10:16:35
(UTC-06:00)

Iridium 6 - Visible Passes

Search period start: 05 September 2015 00:00
Search period end: 15 September 2015 00:00
Orbit: 776 x 779 km, 86.4° (Epoch: 05 September)

Date Brightness Start Highest point End Pass type
(mag) Time Alt. Az. Time Alt. Az. Time Alt. Az.
05 Sep 6.4 04:41:54 10° N 04:46:59 51° E 04:52:04 10° SSE visible
06 Sep 7.4 04:08:47 10° NNE 04:13:15 29° ENE 04:17:47 10° SE visible
06 Sep 6.1 05:49:19 10° NNW 05:54:04 35° W 05:58:44 10° SSW visible
07 Sep 8.2 03:36:08 10° NNE 03:39:21 17° ENE 03:42:45 10° ESE visible
07 Sep 5.5 05:15:30 10° N 05:20:41 64° W 05:25:48 10° S visible
08 Sep 5.7 04:41:55 10° N 04:47:09 73° E 04:52:22 10° S visible
09 Sep 6.8 04:08:36 10° N 04:13:31 40° E 04:18:25 10° SSE visible
09 Sep 6.5 05:49:48 10° NNW 05:54:04 25° W 05:58:13 10° SW visible
10 Sep 7.7 03:35:38 10° NNE 03:39:42 23° ENE 03:43:54 10° SE visible
10 Sep 5.8 05:15:45 10° NNW 05:20:43 44° W 05:25:38 10° SSW visible
11 Sep 8.3 03:03:24 10° NE 03:05:44 13° ENE 03:08:20 10° E visible
11 Sep 5.4 04:42:02 10° N 04:47:16 80° W 04:52:30 10° S visible
12 Sep 6.1 04:08:34 10° N 04:13:43 57° E 04:17:52 16° SSE visible
12 Sep 6.9 05:50:29 10° NW 05:54:02 18° W 05:57:23 10° WSW visible
13 Sep 7.1 03:35:22 10° NNE 03:40:01 32° ENE 03:43:22 17° SE visible
13 Sep 6.3 05:16:08 10° NNW 05:20:44 31° W 05:23:46 18° SW visible
14 Sep 7.9 03:02:36 10° NNE 03:06:09 19° ENE 03:09:00 13° ESE visible
14 Sep 5.6 04:42:14 10° NNW 04:47:21 56° W 04:49:25 34° SSW visible
